Year,Month,Day,Hour,Minute,Value (Times are PST for temperature in C)
2008,05,04,00,00,8.30
2008,05,04,00,01,8.20
2008,05,04,00,02,8.20
2008,05,04,00,03,8.20
2008,05,04,00,04,8.20
2008,05,04,00,05,8.20
2008,05,04,00,06,8.20
2008,05,04,00,07,8.20
2008,05,04,00,08,8.20
2008,05,04,00,09,8.20
2008,05,04,00,10,8.20
2008,05,04,00,11,8.30
2008,05,04,00,12,8.30
2008,05,04,00,13,8.30
2008,05,04,00,14,8.30
2008,05,04,00,15,8.30
2008,05,04,00,16,8.30
2008,05,04,00,17,8.30
2008,05,04,00,18,8.30
2008,05,04,00,19,8.30
2008,05,04,00,20,8.30
2008,05,04,00,21,8.30
2008,05,04,00,22,8.30
2008,05,04,00,23,8.30
2008,05,04,00,24,8.40
2008,05,04,00,25,8.40
2008,05,04,00,26,8.40
2008,05,04,00,27,8.50
2008,05,04,00,28,8.50
2008,05,04,00,29,8.60
2008,05,04,00,30,8.60
2008,05,04,00,31,8.60
2008,05,04,00,32,8.60
2008,05,04,00,33,8.50
2008,05,04,00,34,8.50
2008,05,04,00,35,8.50
2008,05,04,00,36,8.40
2008,05,04,00,37,8.40
2008,05,04,00,38,8.40
2008,05,04,00,39,8.40
2008,05,04,00,40,8.40
2008,05,04,00,41,8.40
2008,05,04,00,42,8.40
2008,05,04,00,43,8.40
2008,05,04,00,44,8.40
2008,05,04,00,45,8.50
2008,05,04,00,46,8.50
2008,05,04,00,47,8.50
2008,05,04,00,48,8.40
2008,05,04,00,49,8.40
2008,05,04,00,50,8.40
2008,05,04,00,51,8.40
2008,05,04,00,52,8.40
2008,05,04,00,53,8.40
2008,05,04,00,54,8.40
2008,05,04,00,55,8.40
2008,05,04,00,56,8.40
2008,05,04,00,57,8.40
2008,05,04,00,58,8.40
2008,05,04,00,59,8.40
2008,05,04,01,00,8.30
2008,05,04,01,01,8.30
2008,05,04,01,02,8.30
2008,05,04,01,03,8.30
2008,05,04,01,04,8.20
2008,05,04,01,05,8.20
2008,05,04,01,06,8.20
2008,05,04,01,07,8.20
2008,05,04,01,08,8.10
2008,05,04,01,09,8.00
2008,05,04,01,10,8.00
2008,05,04,01,11,7.90
2008,05,04,01,12,7.90
2008,05,04,01,13,7.90
2008,05,04,01,14,7.80
2008,05,04,01,15,7.80
2008,05,04,01,16,7.80
2008,05,04,01,17,7.80
2008,05,04,01,18,7.70
2008,05,04,01,19,7.70
2008,05,04,01,20,7.60
2008,05,04,01,21,7.60
2008,05,04,01,22,7.50
2008,05,04,01,23,7.50
2008,05,04,01,24,7.50
2008,05,04,01,25,7.50
2008,05,04,01,26,7.40
2008,05,04,01,27,7.40
2008,05,04,01,28,7.30
2008,05,04,01,29,7.30
2008,05,04,01,30,7.30
2008,05,04,01,31,7.30
2008,05,04,01,32,7.20
2008,05,04,01,33,7.20
2008,05,04,01,34,7.20
2008,05,04,01,35,7.10
2008,05,04,01,36,7.10
2008,05,04,01,37,7.10
2008,05,04,01,38,7.10
2008,05,04,01,39,7.00
2008,05,04,01,40,7.00
2008,05,04,01,41,7.00
2008,05,04,01,42,7.00
2008,05,04,01,43,7.00
2008,05,04,01,44,7.00
2008,05,04,01,45,7.00
2008,05,04,01,46,6.90
2008,05,04,01,47,6.90
2008,05,04,01,48,6.90
2008,05,04,01,49,6.90
2008,05,04,01,50,6.90
2008,05,04,01,51,6.90
2008,05,04,01,52,6.80
2008,05,04,01,53,6.80
2008,05,04,01,54,6.80
2008,05,04,01,55,6.80
2008,05,04,01,56,6.80
2008,05,04,01,57,6.80
2008,05,04,01,58,6.80
2008,05,04,01,59,6.80
2008,05,04,02,00,6.80
2008,05,04,02,01,6.80
2008,05,04,02,02,6.80
2008,05,04,02,03,6.80
2008,05,04,02,04,6.80
2008,05,04,02,05,6.80
2008,05,04,02,06,6.80
2008,05,04,02,07,6.80
2008,05,04,02,08,6.80
2008,05,04,02,09,6.80
2008,05,04,02,10,6.80
2008,05,04,02,11,6.80
2008,05,04,02,12,6.80
2008,05,04,02,13,6.80
2008,05,04,02,14,6.80
2008,05,04,02,15,6.80
2008,05,04,02,16,6.80
2008,05,04,02,17,6.80
2008,05,04,02,18,6.80
2008,05,04,02,19,6.80
2008,05,04,02,20,6.80
2008,05,04,02,21,6.80
2008,05,04,02,22,6.90
2008,05,04,02,23,6.90
2008,05,04,02,24,6.90
2008,05,04,02,25,6.90
2008,05,04,02,26,7.00
2008,05,04,02,27,7.00
2008,05,04,02,28,7.00
2008,05,04,02,29,7.00
2008,05,04,02,30,7.00
2008,05,04,02,31,7.00
2008,05,04,02,32,6.90
2008,05,04,02,33,6.90
2008,05,04,02,34,6.90
2008,05,04,02,35,6.80
2008,05,04,02,36,6.80
2008,05,04,02,37,6.80
2008,05,04,02,38,6.80
2008,05,04,02,39,6.90
2008,05,04,02,40,6.90
2008,05,04,02,41,6.90
2008,05,04,02,42,6.90
2008,05,04,02,43,6.90
2008,05,04,02,44,6.90
2008,05,04,02,45,6.90
2008,05,04,02,46,6.90
2008,05,04,02,47,6.90
2008,05,04,02,48,6.80
2008,05,04,02,49,6.80
2008,05,04,02,50,6.80
2008,05,04,02,51,6.80
2008,05,04,02,52,6.80
2008,05,04,02,53,6.80
2008,05,04,02,54,6.80
2008,05,04,02,55,6.80
2008,05,04,02,56,6.80
2008,05,04,02,57,6.80
2008,05,04,02,58,6.80
2008,05,04,02,59,6.80
2008,05,04,03,00,6.70
2008,05,04,03,01,6.70
2008,05,04,03,02,6.70
2008,05,04,03,03,6.60
2008,05,04,03,04,6.60
2008,05,04,03,05,6.60
2008,05,04,03,06,6.60
2008,05,04,03,07,6.50
2008,05,04,03,08,6.40
2008,05,04,03,09,6.40
2008,05,04,03,10,6.40
2008,05,04,03,11,6.40
2008,05,04,03,12,6.30
2008,05,04,03,13,6.30
2008,05,04,03,14,6.20
2008,05,04,03,15,6.20
2008,05,04,03,16,6.20
2008,05,04,03,17,6.20
2008,05,04,03,18,6.10
2008,05,04,03,19,6.10
2008,05,04,03,20,6.00
2008,05,04,03,21,6.00
2008,05,04,03,22,5.90
2008,05,04,03,23,5.80
2008,05,04,03,24,5.70
2008,05,04,03,25,5.70
2008,05,04,03,26,5.70
2008,05,04,03,27,5.70
2008,05,04,03,28,5.70
2008,05,04,03,29,5.70
2008,05,04,03,30,5.70
2008,05,04,03,31,5.70
2008,05,04,03,32,5.70
2008,05,04,03,33,5.70
2008,05,04,03,34,5.60
2008,05,04,03,35,5.60
2008,05,04,03,36,5.60
2008,05,04,03,37,5.50
2008,05,04,03,38,5.50
2008,05,04,03,39,5.50
2008,05,04,03,40,5.50
2008,05,04,03,41,5.50
2008,05,04,03,42,5.50
2008,05,04,03,43,5.50
2008,05,04,03,44,5.50
2008,05,04,03,45,5.60
2008,05,04,03,46,5.60
2008,05,04,03,47,5.70
2008,05,04,03,48,5.70
2008,05,04,03,49,5.70
2008,05,04,03,50,5.60
2008,05,04,03,51,5.60
2008,05,04,03,52,5.60
2008,05,04,03,53,5.50
2008,05,04,03,54,5.50
2008,05,04,03,55,5.50
2008,05,04,03,56,5.50
2008,05,04,03,57,5.40
2008,05,04,03,58,5.40
2008,05,04,03,59,5.40
2008,05,04,04,00,5.40
2008,05,04,04,01,5.40
2008,05,04,04,02,5.40
2008,05,04,04,03,5.40
2008,05,04,04,04,5.40
2008,05,04,04,05,5.40
2008,05,04,04,06,5.30
2008,05,04,04,07,5.30
2008,05,04,04,08,5.30
2008,05,04,04,09,5.30
2008,05,04,04,10,5.30
2008,05,04,04,11,5.30
2008,05,04,04,12,5.30
2008,05,04,04,13,5.30
2008,05,04,04,14,5.30
2008,05,04,04,15,5.20
2008,05,04,04,16,5.20
2008,05,04,04,17,5.20
2008,05,04,04,18,5.30
2008,05,04,04,19,5.30
2008,05,04,04,20,5.30
2008,05,04,04,21,5.30
2008,05,04,04,22,5.20
2008,05,04,04,23,5.20
2008,05,04,04,24,5.20
2008,05,04,04,25,5.20
2008,05,04,04,26,5.20
2008,05,04,04,27,5.20
2008,05,04,04,28,5.20
2008,05,04,04,29,5.20
2008,05,04,04,30,5.10
2008,05,04,04,31,5.10
2008,05,04,04,32,5.10
2008,05,04,04,33,5.10
2008,05,04,04,34,5.10
2008,05,04,04,35,5.10
2008,05,04,04,36,5.00
2008,05,04,04,37,4.90
2008,05,04,04,38,4.90
2008,05,04,04,39,4.90
2008,05,04,04,40,4.90
2008,05,04,04,41,4.90
2008,05,04,04,42,4.90
2008,05,04,04,43,4.90
2008,05,04,04,44,4.80
2008,05,04,04,45,4.80
2008,05,04,04,46,4.80
2008,05,04,04,47,4.80
2008,05,04,04,48,4.80
2008,05,04,04,49,4.90
2008,05,04,04,50,4.90
2008,05,04,04,51,4.90
2008,05,04,04,52,4.90
2008,05,04,04,53,4.80
2008,05,04,04,54,4.80
2008,05,04,04,55,4.80
2008,05,04,04,56,4.80
2008,05,04,04,57,4.80
2008,05,04,04,58,4.80
2008,05,04,04,59,4.80
2008,05,04,05,00,4.70
2008,05,04,05,01,4.70
2008,05,04,05,02,4.70
2008,05,04,05,03,4.80
2008,05,04,05,04,4.80
2008,05,04,05,05,4.70
2008,05,04,05,06,4.70
2008,05,04,05,07,4.70
2008,05,04,05,08,4.70
2008,05,04,05,09,4.60
2008,05,04,05,10,4.60
2008,05,04,05,11,4.60
2008,05,04,05,12,4.60
2008,05,04,05,13,4.60
2008,05,04,05,14,4.60
2008,05,04,05,15,4.60
2008,05,04,05,16,4.70
2008,05,04,05,17,4.70
2008,05,04,05,18,4.70
2008,05,04,05,19,4.70
2008,05,04,05,20,4.70
2008,05,04,05,21,4.70
2008,05,04,05,22,4.70
2008,05,04,05,23,4.70
2008,05,04,05,24,4.70
2008,05,04,05,25,4.60
2008,05,04,05,26,4.60
2008,05,04,05,27,4.60
2008,05,04,05,28,4.60
2008,05,04,05,29,4.60
2008,05,04,05,30,4.60
2008,05,04,05,31,4.60
2008,05,04,05,32,4.60
2008,05,04,05,33,4.60
2008,05,04,05,34,4.60
2008,05,04,05,35,4.60
2008,05,04,05,36,4.60
2008,05,04,05,37,4.60
2008,05,04,05,38,4.60
2008,05,04,05,39,4.60
2008,05,04,05,40,4.60
2008,05,04,05,41,4.60
2008,05,04,05,42,4.70
2008,05,04,05,43,4.70
2008,05,04,05,44,4.70
2008,05,04,05,45,4.70
2008,05,04,05,46,4.70
2008,05,04,05,47,4.70
2008,05,04,05,48,4.70
2008,05,04,05,49,4.70
2008,05,04,05,50,4.70
2008,05,04,05,51,4.70
2008,05,04,05,52,4.70
2008,05,04,05,53,4.70
2008,05,04,05,54,4.70
2008,05,04,05,55,4.70
2008,05,04,05,56,4.70
2008,05,04,05,57,4.70
2008,05,04,05,58,4.70
2008,05,04,05,59,4.60
2008,05,04,06,00,4.60
2008,05,04,06,01,4.60
2008,05,04,06,02,4.60
2008,05,04,06,03,4.60
2008,05,04,06,04,4.60
2008,05,04,06,05,4.60
2008,05,04,06,06,4.60
2008,05,04,06,07,4.60
2008,05,04,06,08,4.60
2008,05,04,06,09,4.60
2008,05,04,06,10,4.60
2008,05,04,06,11,4.60
2008,05,04,06,12,4.60
2008,05,04,06,13,4.60
2008,05,04,06,14,4.50
2008,05,04,06,15,4.50
2008,05,04,06,16,4.50
2008,05,04,06,17,4.50
2008,05,04,06,18,4.50
2008,05,04,06,19,4.50
2008,05,04,06,20,4.50
2008,05,04,06,21,4.50
2008,05,04,06,22,4.60
2008,05,04,06,23,4.60
2008,05,04,06,24,4.60
2008,05,04,06,25,4.60
2008,05,04,06,26,4.60
2008,05,04,06,27,4.60
2008,05,04,06,28,4.70
2008,05,04,06,29,4.70
2008,05,04,06,30,4.70
2008,05,04,06,31,4.80
2008,05,04,06,32,4.90
2008,05,04,06,33,4.90
2008,05,04,06,34,4.90
2008,05,04,06,35,4.90
2008,05,04,06,36,4.90
2008,05,04,06,37,4.90
2008,05,04,06,38,4.90
2008,05,04,06,39,4.90
2008,05,04,06,40,4.90
2008,05,04,06,41,4.90
2008,05,04,06,42,4.90
2008,05,04,06,43,4.90
2008,05,04,06,44,4.90
2008,05,04,06,45,4.90
2008,05,04,06,46,4.90
2008,05,04,06,47,4.90
2008,05,04,06,48,4.90
2008,05,04,06,49,4.90
2008,05,04,06,50,4.90
2008,05,04,06,51,4.90
2008,05,04,06,52,4.90
2008,05,04,06,53,5.00
2008,05,04,06,54,5.10
2008,05,04,06,55,5.10
2008,05,04,06,56,5.30
2008,05,04,06,57,5.30
2008,05,04,06,58,5.40
2008,05,04,06,59,5.40
2008,05,04,07,00,5.50
2008,05,04,07,01,5.50
2008,05,04,07,02,5.60
2008,05,04,07,03,5.60
2008,05,04,07,04,5.70
2008,05,04,07,05,5.70
2008,05,04,07,06,5.70
2008,05,04,07,07,5.70
2008,05,04,07,08,5.70
2008,05,04,07,09,5.70
2008,05,04,07,10,5.80
2008,05,04,07,11,5.80
2008,05,04,07,12,5.90
2008,05,04,07,13,5.90
2008,05,04,07,14,5.90
2008,05,04,07,15,6.00
2008,05,04,07,16,6.00
2008,05,04,07,17,6.00
2008,05,04,07,18,6.10
2008,05,04,07,19,6.10
2008,05,04,07,20,6.10
2008,05,04,07,21,6.20
2008,05,04,07,22,6.20
2008,05,04,07,23,6.20
2008,05,04,07,24,6.20
2008,05,04,07,25,6.20
2008,05,04,07,26,6.20
2008,05,04,07,27,6.30
2008,05,04,07,28,6.30
2008,05,04,07,29,6.40
2008,05,04,07,30,6.40
2008,05,04,07,31,6.50
2008,05,04,07,32,6.60
2008,05,04,07,33,6.60
2008,05,04,07,34,6.70
2008,05,04,07,35,6.80
2008,05,04,07,36,6.80
2008,05,04,07,37,6.80
2008,05,04,07,38,6.90
2008,05,04,07,39,7.00
2008,05,04,07,40,7.10
2008,05,04,07,41,7.20
2008,05,04,07,42,7.30
2008,05,04,07,43,7.30
2008,05,04,07,44,7.40
2008,05,04,07,45,7.50
2008,05,04,07,46,7.60
2008,05,04,07,47,7.60
2008,05,04,07,48,7.80
2008,05,04,07,49,7.90
2008,05,04,07,50,8.10
2008,05,04,07,51,8.20
2008,05,04,07,52,8.30
2008,05,04,07,53,8.30
2008,05,04,07,54,8.20
2008,05,04,07,55,8.30
2008,05,04,07,56,8.30
2008,05,04,07,57,8.40
2008,05,04,07,58,8.40
2008,05,04,07,59,8.50
2008,05,04,08,00,8.60
2008,05,04,08,01,8.70
2008,05,04,08,02,8.80
2008,05,04,08,03,8.90
2008,05,04,08,04,8.90
2008,05,04,08,05,8.90
2008,05,04,08,06,8.90
2008,05,04,08,07,8.90
2008,05,04,08,08,8.90
2008,05,04,08,09,8.90
2008,05,04,08,10,8.90
2008,05,04,08,11,8.90
2008,05,04,08,12,8.90
2008,05,04,08,13,9.00
2008,05,04,08,14,9.10
2008,05,04,08,15,9.20
2008,05,04,08,16,9.20
2008,05,04,08,17,9.20
2008,05,04,08,18,9.20
2008,05,04,08,19,9.20
2008,05,04,08,20,9.30
2008,05,04,08,21,9.40
2008,05,04,08,22,9.50
2008,05,04,08,23,9.60
2008,05,04,08,24,9.70
2008,05,04,08,25,9.80
2008,05,04,08,26,9.90
2008,05,04,08,27,9.90
2008,05,04,08,28,9.90
2008,05,04,08,29,9.90
2008,05,04,08,30,9.90
2008,05,04,08,31,9.80
2008,05,04,08,32,9.80
2008,05,04,08,33,9.70
2008,05,04,08,34,9.70
2008,05,04,08,35,9.80
2008,05,04,08,36,9.80
2008,05,04,08,37,9.90
2008,05,04,08,38,9.90
2008,05,04,08,39,10.00
2008,05,04,08,40,10.10
2008,05,04,08,41,10.10
2008,05,04,08,42,10.20
2008,05,04,08,43,10.30
2008,05,04,08,44,10.40
2008,05,04,08,45,10.50
2008,05,04,08,46,10.60
2008,05,04,08,47,10.60
2008,05,04,08,48,10.70
2008,05,04,08,49,10.80
2008,05,04,08,50,10.90
2008,05,04,08,51,11.00
2008,05,04,08,52,11.10
2008,05,04,08,53,11.10
2008,05,04,08,54,11.10
2008,05,04,08,55,11.20
2008,05,04,08,56,11.30
2008,05,04,08,57,11.30
2008,05,04,08,58,11.40
2008,05,04,08,59,11.40
2008,05,04,09,00,11.40
2008,05,04,09,01,11.40
2008,05,04,09,02,11.40
2008,05,04,09,03,11.30
2008,05,04,09,04,11.30
2008,05,04,09,05,11.30
2008,05,04,09,06,11.20
2008,05,04,09,07,11.10
2008,05,04,09,08,11.00
2008,05,04,09,09,10.90
2008,05,04,09,10,11.00
2008,05,04,09,11,11.10
2008,05,04,09,12,11.10
2008,05,04,09,13,11.20
2008,05,04,09,14,11.30
2008,05,04,09,15,11.40
2008,05,04,09,16,11.40
2008,05,04,09,17,11.40
2008,05,04,09,18,11.50
2008,05,04,09,19,11.60
2008,05,04,09,20,11.60
2008,05,04,09,21,11.60
2008,05,04,09,22,11.70
2008,05,04,09,23,11.80
2008,05,04,09,24,11.80
2008,05,04,09,25,11.80
2008,05,04,09,26,11.90
2008,05,04,09,27,12.00
2008,05,04,09,28,12.00
2008,05,04,09,29,12.10
2008,05,04,09,30,12.20
2008,05,04,09,31,12.20
2008,05,04,09,32,12.20
2008,05,04,09,33,12.10
2008,05,04,09,34,12.10
2008,05,04,09,35,12.20
2008,05,04,09,36,12.20
2008,05,04,09,37,12.20
2008,05,04,09,38,12.20
2008,05,04,09,39,12.30
2008,05,04,09,40,12.30
2008,05,04,09,41,12.30
2008,05,04,09,42,12.40
2008,05,04,09,43,12.50
2008,05,04,09,44,12.60
2008,05,04,09,45,12.70
2008,05,04,09,46,12.70
2008,05,04,09,47,12.70
2008,05,04,09,48,12.60
2008,05,04,09,49,12.60
2008,05,04,09,50,12.50
2008,05,04,09,51,12.50
2008,05,04,09,52,12.50
2008,05,04,09,53,12.40
2008,05,04,09,54,12.40
2008,05,04,09,55,12.50
2008,05,04,09,56,12.50
2008,05,04,09,57,12.50
2008,05,04,09,58,12.50
2008,05,04,09,59,12.60
2008,05,04,10,00,12.70
2008,05,04,10,01,12.70
2008,05,04,10,02,12.70
2008,05,04,10,03,12.70
2008,05,04,10,04,12.80
2008,05,04,10,05,12.80
2008,05,04,10,06,12.80
2008,05,04,10,07,12.90
2008,05,04,10,08,13.00
2008,05,04,10,09,13.10
2008,05,04,10,10,13.00
2008,05,04,10,11,12.90
2008,05,04,10,12,12.70
2008,05,04,10,13,12.80
2008,05,04,10,14,12.80
2008,05,04,10,15,12.90
2008,05,04,10,16,13.00
2008,05,04,10,17,13.00
2008,05,04,10,18,13.00
2008,05,04,10,19,12.90
2008,05,04,10,20,12.80
2008,05,04,10,21,12.80
2008,05,04,10,22,12.80
2008,05,04,10,23,12.80
2008,05,04,10,24,12.80
2008,05,04,10,25,12.70
2008,05,04,10,26,12.70
2008,05,04,10,27,12.70
2008,05,04,10,28,12.70
2008,05,04,10,29,12.70
2008,05,04,10,30,12.70
2008,05,04,10,31,12.60
2008,05,04,10,32,12.60
2008,05,04,10,33,12.50
2008,05,04,10,34,12.50
2008,05,04,10,35,12.60
2008,05,04,10,36,12.50
2008,05,04,10,37,12.60
2008,05,04,10,38,12.80
2008,05,04,10,39,12.80
2008,05,04,10,40,12.80
2008,05,04,10,41,12.80
2008,05,04,10,42,12.80
2008,05,04,10,43,12.80
2008,05,04,10,44,12.80
2008,05,04,10,45,12.60
2008,05,04,10,46,12.60
2008,05,04,10,47,12.50
2008,05,04,10,48,12.40
2008,05,04,10,49,12.40
2008,05,04,10,50,12.40
2008,05,04,10,51,12.40
2008,05,04,10,52,12.50
2008,05,04,10,53,12.60
2008,05,04,10,54,12.70
2008,05,04,10,55,12.60
2008,05,04,10,56,12.60
2008,05,04,10,57,12.60
2008,05,04,10,58,12.50
2008,05,04,10,59,12.50
2008,05,04,11,00,12.50
2008,05,04,11,01,12.50
2008,05,04,11,02,12.60
2008,05,04,11,03,12.60
2008,05,04,11,04,12.50
2008,05,04,11,05,12.50
2008,05,04,11,06,12.50
2008,05,04,11,07,12.50
2008,05,04,11,08,12.60
2008,05,04,11,09,12.60
2008,05,04,11,10,12.50
2008,05,04,11,11,12.50
2008,05,04,11,12,12.40
2008,05,04,11,13,12.50
2008,05,04,11,14,12.40
2008,05,04,11,15,12.40
2008,05,04,11,16,12.40
2008,05,04,11,17,12.40
2008,05,04,11,18,12.30
2008,05,04,11,19,12.20
2008,05,04,11,20,12.10
2008,05,04,11,21,12.10
2008,05,04,11,22,12.10
2008,05,04,11,23,12.20
2008,05,04,11,24,12.20
2008,05,04,11,25,12.20
2008,05,04,11,26,12.20
2008,05,04,11,27,12.10
2008,05,04,11,28,12.00
2008,05,04,11,29,11.90
2008,05,04,11,30,11.80
2008,05,04,11,31,11.80
2008,05,04,11,32,11.90
2008,05,04,11,33,12.00
2008,05,04,11,34,12.00
2008,05,04,11,35,12.10
2008,05,04,11,36,12.20
2008,05,04,11,37,12.20
2008,05,04,11,38,12.20
2008,05,04,11,39,12.10
2008,05,04,11,40,12.00
2008,05,04,11,41,11.90
2008,05,04,11,42,11.90
2008,05,04,11,43,11.90
2008,05,04,11,44,12.00
2008,05,04,11,45,12.00
2008,05,04,11,46,12.00
2008,05,04,11,47,11.90
2008,05,04,11,48,11.80
2008,05,04,11,49,11.80
2008,05,04,11,50,11.80
2008,05,04,11,51,11.80
2008,05,04,11,52,11.80
2008,05,04,11,53,11.80
2008,05,04,11,54,11.80
2008,05,04,11,55,11.90
2008,05,04,11,56,12.00
2008,05,04,11,57,12.10
2008,05,04,11,58,12.20
2008,05,04,11,59,12.20
2008,05,04,12,00,12.30
2008,05,04,12,01,12.30
2008,05,04,12,02,12.40
2008,05,04,12,03,12.50
2008,05,04,12,04,12.40
2008,05,04,12,05,12.50
2008,05,04,12,06,12.60
2008,05,04,12,07,12.40
2008,05,04,12,08,12.30
2008,05,04,12,09,12.10
2008,05,04,12,10,12.10
2008,05,04,12,11,12.20
2008,05,04,12,12,12.20
2008,05,04,12,13,12.20
2008,05,04,12,14,12.20
2008,05,04,12,15,12.20
2008,05,04,12,16,12.10
2008,05,04,12,17,12.20
2008,05,04,12,18,12.30
2008,05,04,12,19,12.40
2008,05,04,12,20,12.40
2008,05,04,12,21,12.40
2008,05,04,12,22,12.50
2008,05,04,12,23,12.50
2008,05,04,12,24,12.60
2008,05,04,12,25,12.50
2008,05,04,12,26,12.40
2008,05,04,12,27,12.40
2008,05,04,12,28,12.40
2008,05,04,12,29,12.40
2008,05,04,12,30,12.40
2008,05,04,12,31,12.40
2008,05,04,12,32,12.50
2008,05,04,12,33,12.50
2008,05,04,12,34,12.70
2008,05,04,12,35,12.80
2008,05,04,12,36,12.80
2008,05,04,12,37,12.70
2008,05,04,12,38,12.80
2008,05,04,12,39,12.90
2008,05,04,12,40,12.90
2008,05,04,12,41,12.90
2008,05,04,12,42,12.90
2008,05,04,12,43,13.00
2008,05,04,12,44,12.90
2008,05,04,12,45,12.90
2008,05,04,12,46,13.00
2008,05,04,12,47,12.90
2008,05,04,12,48,13.00
2008,05,04,12,49,13.00
2008,05,04,12,50,12.90
2008,05,04,12,51,12.80
2008,05,04,12,52,12.80
2008,05,04,12,53,12.80
2008,05,04,12,54,12.80
2008,05,04,12,55,12.80
2008,05,04,12,56,12.80
2008,05,04,12,57,12.80
2008,05,04,12,58,12.80
2008,05,04,12,59,12.80
2008,05,04,13,00,12.80
2008,05,04,13,01,12.70
2008,05,04,13,02,12.60
2008,05,04,13,03,12.50
2008,05,04,13,04,12.60
2008,05,04,13,05,12.70
2008,05,04,13,06,12.80
2008,05,04,13,07,12.70
2008,05,04,13,08,12.80
2008,05,04,13,09,12.80
2008,05,04,13,10,12.70
2008,05,04,13,11,12.60
2008,05,04,13,12,12.70
2008,05,04,13,13,12.80
2008,05,04,13,14,12.90
2008,05,04,13,15,13.00
2008,05,04,13,16,13.20
2008,05,04,13,17,13.30
2008,05,04,13,18,13.30
2008,05,04,13,19,13.40
2008,05,04,13,20,13.30
2008,05,04,13,21,13.10
2008,05,04,13,22,12.80
2008,05,04,13,23,12.60
2008,05,04,13,24,12.60
2008,05,04,13,25,12.70
2008,05,04,13,26,12.70
2008,05,04,13,27,12.80
2008,05,04,13,28,12.80
2008,05,04,13,29,12.80
2008,05,04,13,30,12.90
2008,05,04,13,31,13.00
2008,05,04,13,32,13.00
2008,05,04,13,33,13.00
2008,05,04,13,34,12.90
2008,05,04,13,35,12.80
2008,05,04,13,36,12.70
2008,05,04,13,37,12.70
2008,05,04,13,38,12.60
2008,05,04,13,39,12.50
2008,05,04,13,40,12.50
2008,05,04,13,41,12.30
2008,05,04,13,42,12.30
2008,05,04,13,43,12.30
2008,05,04,13,44,12.30
2008,05,04,13,45,12.30
2008,05,04,13,46,12.20
2008,05,04,13,47,12.20
2008,05,04,13,48,12.30
2008,05,04,13,49,12.50
2008,05,04,13,50,12.60
2008,05,04,13,51,12.60
2008,05,04,13,52,12.50
2008,05,04,13,53,12.50
2008,05,04,13,54,12.60
2008,05,04,13,55,12.50
2008,05,04,13,56,12.40
2008,05,04,13,57,12.50
2008,05,04,13,58,12.30
2008,05,04,13,59,12.10
2008,05,04,14,00,12.00
2008,05,04,14,01,11.90
2008,05,04,14,02,11.80
2008,05,04,14,03,11.80
2008,05,04,14,04,11.80
2008,05,04,14,05,11.80
2008,05,04,14,06,11.90
2008,05,04,14,07,12.00
2008,05,04,14,08,12.00
2008,05,04,14,09,11.90
2008,05,04,14,10,12.00
2008,05,04,14,11,12.10
2008,05,04,14,12,12.10
2008,05,04,14,13,12.10
2008,05,04,14,14,12.10
2008,05,04,14,15,12.00
2008,05,04,14,16,12.00
2008,05,04,14,17,12.00
2008,05,04,14,18,12.00
2008,05,04,14,19,12.10
2008,05,04,14,20,12.20
2008,05,04,14,21,12.30
2008,05,04,14,22,12.40
2008,05,04,14,23,12.50
2008,05,04,14,24,12.60
2008,05,04,14,25,12.60
2008,05,04,14,26,12.50
2008,05,04,14,27,12.40
2008,05,04,14,28,12.20
2008,05,04,14,29,12.20
2008,05,04,14,30,12.30
2008,05,04,14,31,12.30
2008,05,04,14,32,12.30
2008,05,04,14,33,12.40
2008,05,04,14,34,12.50
2008,05,04,14,35,12.50
2008,05,04,14,36,12.60
2008,05,04,14,37,12.60
2008,05,04,14,38,12.60
2008,05,04,14,39,12.60
2008,05,04,14,40,12.60
2008,05,04,14,41,12.70
2008,05,04,14,42,12.80
2008,05,04,14,43,12.80
2008,05,04,14,44,12.90
2008,05,04,14,45,12.90
2008,05,04,14,46,13.00
2008,05,04,14,47,12.90
2008,05,04,14,48,12.80
2008,05,04,14,49,12.70
2008,05,04,14,50,12.70
2008,05,04,14,51,12.80
2008,05,04,14,52,12.90
2008,05,04,14,53,13.00
2008,05,04,14,54,13.00
2008,05,04,14,55,13.10
2008,05,04,14,56,13.20
2008,05,04,14,57,13.20
2008,05,04,14,58,13.30
2008,05,04,14,59,13.30
2008,05,04,15,00,13.30
2008,05,04,15,01,13.20
2008,05,04,15,02,13.20
2008,05,04,15,03,13.20
2008,05,04,15,04,13.00
2008,05,04,15,05,13.00
2008,05,04,15,06,12.90
2008,05,04,15,07,13.00
2008,05,04,15,08,13.00
2008,05,04,15,09,13.10
2008,05,04,15,10,13.10
2008,05,04,15,11,13.20
2008,05,04,15,12,13.20
2008,05,04,15,13,13.30
2008,05,04,15,14,13.30
2008,05,04,15,15,13.30
2008,05,04,15,16,13.30
2008,05,04,15,17,13.40
2008,05,04,15,18,13.40
2008,05,04,15,19,13.30
2008,05,04,15,20,13.30
2008,05,04,15,21,13.30
2008,05,04,15,22,13.30
2008,05,04,15,23,13.30
2008,05,04,15,24,13.30
2008,05,04,15,25,13.30
2008,05,04,15,26,13.30
2008,05,04,15,27,13.40
2008,05,04,15,28,13.40
2008,05,04,15,29,13.50
2008,05,04,15,30,13.50
2008,05,04,15,31,13.60
2008,05,04,15,32,13.60
2008,05,04,15,33,13.70
2008,05,04,15,34,13.70
2008,05,04,15,35,13.70
2008,05,04,15,36,13.70
2008,05,04,15,37,13.80
2008,05,04,15,38,13.70
2008,05,04,15,39,13.60
2008,05,04,15,40,13.60
2008,05,04,15,41,13.60
2008,05,04,15,42,13.60
2008,05,04,15,43,13.60
2008,05,04,15,44,13.70
2008,05,04,15,45,13.70
2008,05,04,15,46,13.70
2008,05,04,15,47,13.70
2008,05,04,15,48,13.50
2008,05,04,15,49,13.50
2008,05,04,15,50,13.40
2008,05,04,15,51,13.40
2008,05,04,15,52,13.50
2008,05,04,15,53,13.50
2008,05,04,15,54,13.60
2008,05,04,15,55,13.70
2008,05,04,15,56,13.70
2008,05,04,15,57,13.60
2008,05,04,15,58,13.60
2008,05,04,15,59,13.70
2008,05,04,16,00,13.70
2008,05,04,16,01,13.70
2008,05,04,16,02,13.80
2008,05,04,16,03,13.90
2008,05,04,16,04,13.90
2008,05,04,16,05,14.00
2008,05,04,16,06,13.90
2008,05,04,16,07,13.80
2008,05,04,16,08,13.70
2008,05,04,16,09,13.60
2008,05,04,16,10,13.50
2008,05,04,16,11,13.50
2008,05,04,16,12,13.50
2008,05,04,16,13,13.50
2008,05,04,16,14,13.50
2008,05,04,16,15,13.60
2008,05,04,16,16,13.60
2008,05,04,16,17,13.60
2008,05,04,16,18,13.50
2008,05,04,16,19,13.50
2008,05,04,16,20,13.40
2008,05,04,16,21,13.40
2008,05,04,16,22,13.30
2008,05,04,16,23,13.30
2008,05,04,16,24,13.30
2008,05,04,16,25,13.30
2008,05,04,16,26,13.40
2008,05,04,16,27,13.40
2008,05,04,16,28,13.40
2008,05,04,16,29,13.30
2008,05,04,16,30,13.30
2008,05,04,16,31,13.30
2008,05,04,16,32,13.20
2008,05,04,16,33,13.10
2008,05,04,16,34,13.10
2008,05,04,16,35,13.10
2008,05,04,16,36,13.10
2008,05,04,16,37,13.00
2008,05,04,16,38,13.00
2008,05,04,16,39,13.00
2008,05,04,16,40,13.00
2008,05,04,16,41,13.00
2008,05,04,16,42,13.10
2008,05,04,16,43,13.10
2008,05,04,16,44,13.10
2008,05,04,16,45,13.00
2008,05,04,16,46,12.90
2008,05,04,16,47,12.90
2008,05,04,16,48,12.90
2008,05,04,16,49,12.90
2008,05,04,16,50,12.80
2008,05,04,16,51,12.80
2008,05,04,16,52,12.80
2008,05,04,16,53,12.80
2008,05,04,16,54,12.70
2008,05,04,16,55,12.70
2008,05,04,16,56,12.70
2008,05,04,16,57,12.70
2008,05,04,16,58,12.70
2008,05,04,16,59,12.80
2008,05,04,17,00,12.70
2008,05,04,17,01,12.60
2008,05,04,17,02,12.60
2008,05,04,17,03,12.60
2008,05,04,17,04,12.50
2008,05,04,17,05,12.50
2008,05,04,17,06,12.50
2008,05,04,17,07,12.50
2008,05,04,17,08,12.50
2008,05,04,17,09,12.50
2008,05,04,17,10,12.50
2008,05,04,17,11,12.40
2008,05,04,17,12,12.40
2008,05,04,17,13,12.40
2008,05,04,17,14,12.40
2008,05,04,17,15,12.40
2008,05,04,17,16,12.40
2008,05,04,17,17,12.30
2008,05,04,17,18,12.40
2008,05,04,17,19,12.40
2008,05,04,17,20,12.50
2008,05,04,17,21,12.50
2008,05,04,17,22,12.40
2008,05,04,17,23,12.40
2008,05,04,17,24,12.40
2008,05,04,17,25,12.40
2008,05,04,17,26,12.40
2008,05,04,17,27,12.40
2008,05,04,17,28,12.20
2008,05,04,17,29,12.10
2008,05,04,17,30,12.10
2008,05,04,17,31,12.00
2008,05,04,17,32,12.00
2008,05,04,17,33,12.00
2008,05,04,17,34,12.10
2008,05,04,17,35,12.10
2008,05,04,17,36,12.10
2008,05,04,17,37,12.10
2008,05,04,17,38,12.20
2008,05,04,17,39,12.30
2008,05,04,17,40,12.30
2008,05,04,17,41,12.30
2008,05,04,17,42,12.40